CZ-4B DEB, 25733

Orbit data source: Space-Track

CZ-4B DEB, 25733 is space debris in SSO originally from a launch on Mon, 10 May 1999 UTC launched from the Taiyaun Space Center, China (TSC). Debris objects in space refer to the collection of defunct objects orbiting the Earth. Examples of debris include non-operational satellites, rocket bodies, and fragments generated from explosions, collisions, or faulty payload assembly.

Loading next visibility...
Identifier
25733, 1999-025D
Orbit
SSO
Country
Flag of CNCN / PRC
Related business
Manufacturer
Unknown
Mission
Spacecraft
Bus & Motor
Unknown
Mass
~50 kg wet, ~50 kg dry
Launch date (UTC)
1999-05-10 (27 years ago)
Launch vehicle
Unknown
Launch site
Taiyaun Space Center, China (TSC)
Object type
Payload
Rocket body
Debris
Shape & HBR
Cone, 1.5 m
Radar Cross Section
3.657 m², Large (>1 m²)

Expand to show TLE details & history
Last TLE update: 1 day ago

TLE from 1 day ago
0 CZ-4B DEB
1 25733U 99025D   26207.34564900  .00000410  00000-0  21710-3 0  9992
2 25733  98.6797 250.0203 0015487  69.6977 290.5862 14.18970324405571
Epoch: 2026-07-26T08:17Z
TLE epoch observation values (Epoch: 2026-07-26T08:17:44.073Z)
Latitude
-0.00001°
Longitude
-178.45824°
Altitude
827.841 km
Speed
7.441 km/s
True Right ascension
16h 40m 04s
True Declination
0° 00' 00"
Sunlit
Object was in full shadow at epoch
Visualization orbit readout
Latitude
Unknown
Longitude
Unknown
Altitude
Unknown
Speed
Unknown
Apparent Right ascension
Unknown
Apparent Declination
Unknown
Sunlit
N/A
Visualization observer readout
Local Sidereal Time
21:10:17
Azimuth
Unknown
Elevation
Unknown
Doppler factor
Unknown
Orbital elements
Apogee altitude
837.153 km
Perigee altitude
814.839 km
Semi-major axis
7,204.133 km
Eccentricity
0.00155
Inclination
98.6797°
RAAN
250.0203°
Arg. of periapsis
69.6977°
True anomaly
290.41995°
Mean anomaly
290.5862°
Eccentric anomaly
290.50309°
Mean motion
3.54953 °/min
Orbital period
101.42 mins
BSTAR
0.0002171
Loading maneuver chart data...
Computing Atmospheric mass density...

Documentation

Showing up to 5 results
|